Weather History for Naples, FL

Change the Weather History Date:

Wednesday, November 7, 2012

  Actual Average Record
Temperature  
Mean Temperature 67 °F 74 °F  
Max Temperature 71 °F 83 °F 91 °F (1972)
Min Temperature 62 °F 65 °F 48 °F (1954)
Degree Days  
Heating Degree Days 0 0  
Month to date heating degree days 0 0  
Since 1 July heating degree days 1 1  
Cooling Degree Days 2 9  
Month to date cooling degree days 36 67  
Year to date cooling degree days 3877 3662  
Growing Degree Days 16 (Base 50)    
Moisture  
Dew Point 56 °F    
Average Humidity 76    
Maximum Humidity 93    
Minimum Humidity 59    
Precipitation  
Precipitation 0.00 in 0.10 in 0.36 in (1959)
Month to date precipitation 0.12 0.74  
Year to date precipitation 36.15 49.14  
Snow  
Snow 0.00 in - - ()
Month to date snowfall 0.0  
Since 1 July snowfall 0.0  
Since 1 September snowfall 0.0  
Snow Depth 0.00 in    
Sea Level Pressure  
Sea Level Pressure 29.94 in    
Wind  
Wind Speed 7 mph (NNW)    
Max Wind Speed 18 mph    
Max Gust Speed 25 mph    
Visibility 10 miles    
Events      
T = Trace of Precipitation, MM = Missing Value Source: NWS Daily Summary

Daily Weather History Graph

Daily Weather History Graph

Search for Another Location

Airport:

Trip Planner

Search our weather history database for the weather conditions in past years. The results will help you decide how hot, cold, wet, or windy it might be!

Date:

Astronomy

Nov. 07, 2012 Rise Set
Actual Time 6:40 AM EST 5:41 PM EST
Civil Twilight 6:16 AM EST 6:05 PM EST
Nautical Twilight 5:48 AM EST 6:32 PM EST
Astronomical Twilight 5:21 AM EST 6:59 PM EST
Moon 12:12 AM EST (11/7) 1:13 PM EST (11/7)
Length of Visible Light 11h 48m
Length of Day
11h 00m
Last Quarter, 43% of the Moon is Illuminated
Nov 7
Last Quarter
Nov 13
New
Nov 20
First Quarter
Nov 28
Full
Dec 6
Last Quarter

Hourly Weather History & Observations

Time (EST) Temp. Dew Point Humidity Pressure Visibility Wind Dir Wind Speed Gust Speed Precip Events Conditions
12:53 AM 69.1 °F 66.0 °F 90% 29.87 in 10.0 mi North 8.1 mph - N/A   Partly Cloudy
1:53 AM 66.0 °F 64.0 °F 93% 29.88 in 10.0 mi Calm Calm - N/A   Clear
2:53 AM 64.9 °F 61.0 °F 87% 29.87 in 10.0 mi Calm Calm - N/A   Clear
3:53 AM 64.0 °F 59.0 °F 84% 29.88 in 10.0 mi North 3.5 mph - N/A   Scattered Clouds
4:53 AM 63.0 °F 57.0 °F 81% 29.89 in 10.0 mi North 3.5 mph - N/A   Partly Cloudy
5:53 AM 62.1 °F 57.0 °F 84% 29.91 in 10.0 mi Calm Calm - N/A   Scattered Clouds
6:53 AM 68.0 °F 54.0 °F 61% 29.93 in 10.0 mi NW 9.2 mph - N/A   Clear
7:53 AM 63.0 °F 57.0 °F 81% 29.95 in 10.0 mi North 8.1 mph - N/A   Scattered Clouds
8:53 AM 66.0 °F 57.0 °F 73% 29.96 in 10.0 mi North 9.2 mph - N/A   Clear
9:53 AM 69.1 °F 57.0 °F 65% 29.97 in 10.0 mi North 6.9 mph - N/A   Scattered Clouds
10:53 AM 70.0 °F 57.0 °F 63% 29.97 in 10.0 mi NW 12.7 mph 18.4 mph N/A   Partly Cloudy
11:53 AM 69.1 °F 55.9 °F 63% 29.96 in 10.0 mi NW 15.0 mph 23.0 mph N/A   Partly Cloudy
12:53 PM 70.0 °F 55.9 °F 61% 29.93 in 10.0 mi NW 13.8 mph 23.0 mph N/A   Clear
1:53 PM 70.0 °F 55.9 °F 61% 29.91 in 10.0 mi NW 13.8 mph 23.0 mph N/A   Scattered Clouds
2:53 PM 70.0 °F 55.0 °F 59% 29.91 in 10.0 mi NW 10.4 mph 21.9 mph N/A   Partly Cloudy
3:53 PM 68.0 °F 55.0 °F 63% 29.91 in 10.0 mi NW 11.5 mph 20.7 mph N/A   Scattered Clouds
4:53 PM 68.0 °F 53.1 °F 59% 29.92 in 10.0 mi NW 9.2 mph 21.9 mph N/A   Partly Cloudy
6:53 PM 66.0 °F 53.1 °F 63% 29.95 in 10.0 mi NNW 9.2 mph - N/A   Partly Cloudy
7:53 PM 63.0 °F 52.0 °F 67% 29.96 in 10.0 mi North 4.6 mph - N/A   Partly Cloudy
8:53 PM 63.0 °F 52.0 °F 67% 29.99 in 10.0 mi North 3.5 mph - N/A   Mostly Cloudy
9:53 PM 63.0 °F 51.1 °F 65% 30.01 in 10.0 mi North 5.8 mph - N/A   Overcast
10:53 PM 63.0 °F 50.0 °F 63% 30.00 in 10.0 mi NNE 4.6 mph - N/A   Overcast
11:53 PM 62.1 °F 50.0 °F 65% 30.00 in 10.0 mi NNE 3.5 mph - N/A   Overcast